CUBEBEL-1 (BSUSAT-1) (43666 NORAD) Tracking and Keplerian Element Data

This shows tracking and keplerian element data for the satellite.

Feedback or suggestion? Click here.




ElementValue
Catalog43666
NameCUBEBEL-1 (BSUSAT-1)
Epoch Orbit28970
Epoch Day13.1650746
Epoch Year2024
RAAN54.061
Inclination97.3479
Eccentricity0.0006106
Argument of Perigee72.7125
Mean Anonmoly287.4803
Mean Motion15.67506083
Decay Rate0.00172544
L11 43666U 18083E 24013.16507460 .00172544 00000+0 15621-2 0 9993
L22 43666 97.3479 54.0610 0006106 72.7125 287.4803 15.67506083289708



Live tracking and technical data element details for CUBEBEL-1 (BSUSAT-1) (NORAD 43666). CUBEBEL-1 (BSUSAT-1) can be tracked NOW for your location showing map with azimuth and elevation plus other details from your city location.







IsCatalogInMostPopularTable: catalog: 43666, numindb: 535
Update: records affected: 1



GetName: 43666 CUBEBEL-1 (BSUSAT-1)

Hit Count: updated at: Fri, 16 May 2025 10:03:04 GMT